TimeEST,TemperatureF,Dew PointF,Humidity,Sea Level PressureIn,VisibilityMPH,Wind Direction,Wind SpeedMPH,Gust SpeedMPH,PrecipitationIn,Events,Conditions,WindDirDegrees,DateUTC
12:02 AM,37.4,30.2,75,30.16,10.0,SE,8.1,-,N/A,,Mostly Cloudy,130,2013-01-11 05:02:00
12:22 AM,37.4,30.2,75,30.15,10.0,SE,4.6,-,N/A,,Overcast,130,2013-01-11 05:22:00
1:02 AM,37.4,30.2,75,30.14,10.0,SE,4.6,-,N/A,,Overcast,130,2013-01-11 06:02:00
1:23 AM,37.4,30.2,75,30.13,10.0,ESE,5.8,-,N/A,,Overcast,120,2013-01-11 06:23:00
1:42 AM,37.4,30.2,75,30.13,10.0,Calm,Calm,-,N/A,,Overcast,0,2013-01-11 06:42:00
2:02 AM,37.4,32.0,81,30.12,10.0,SE,4.6,-,N/A,,Overcast,140,2013-01-11 07:02:00
2:23 AM,39.2,32.0,75,30.12,10.0,SE,6.9,-,N/A,,Light Drizzle,130,2013-01-11 07:23:00
2:42 AM,41.0,32.0,70,30.11,10.0,ESE,8.1,-,N/A,,Overcast,120,2013-01-11 07:42:00
3:02 AM,41.0,32.0,70,30.09,10.0,ESE,9.2,-,N/A,,Overcast,120,2013-01-11 08:02:00
3:22 AM,41.0,32.0,70,30.09,10.0,SE,8.1,-,N/A,,Overcast,140,2013-01-11 08:22:00
3:42 AM,41.0,32.0,70,30.10,7.0,South,5.8,-,N/A,Rain,Rain,170,2013-01-11 08:42:00
4:02 AM,39.2,33.8,81,30.07,4.0,SE,9.2,-,0.01,Rain,Heavy Rain,140,2013-01-11 09:02:00
4:22 AM,37.4,35.6,93,30.04,10.0,SE,10.4,-,0.05,Rain,Light Rain,130,2013-01-11 09:22:00
4:42 AM,41.0,35.6,81,30.03,10.0,SE,10.4,-,0.05,,Overcast,140,2013-01-11 09:42:00
5:02 AM,41.0,35.6,81,30.01,10.0,SE,10.4,-,N/A,,Overcast,130,2013-01-11 10:02:00
5:22 AM,41.0,37.4,87,30.01,10.0,SE,10.4,-,N/A,,Mostly Cloudy,140,2013-01-11 10:22:00
5:42 AM,42.8,37.4,81,29.99,10.0,SE,11.5,-,N/A,,Scattered Clouds,140,2013-01-11 10:42:00
6:02 AM,42.8,39.2,87,29.98,10.0,SE,15.0,19.6,N/A,,Mostly Cloudy,140,2013-01-11 11:02:00
6:22 AM,44.6,41.0,87,29.98,10.0,SSE,16.1,20.7,N/A,,Drizzle,160,2013-01-11 11:22:00
6:42 AM,42.8,41.0,93,29.97,7.0,SSE,15.0,-,0.02,Rain,Rain,150,2013-01-11 11:42:00
7:02 AM,44.6,42.8,93,29.95,10.0,SSE,16.1,20.7,N/A,,Overcast,150,2013-01-11 12:02:00
7:22 AM,44.6,42.8,93,29.95,10.0,SSE,15.0,-,N/A,,Overcast,150,2013-01-11 12:22:00
8:03 AM,44.6,42.8,93,29.96,4.0,SSE,12.7,-,0.01,Rain,Rain,160,2013-01-11 13:03:00
8:22 AM,44.6,44.6,100,29.95,7.0,SSE,10.4,-,0.06,Rain,Light Rain,150,2013-01-11 13:22:00
8:42 AM,44.6,42.8,93,29.94,5.0,SSE,8.1,-,0.13,Rain,Rain,150,2013-01-11 13:42:00
9:03 AM,44.6,44.6,100,29.93,2.5,SSE,10.4,-,0.01,Rain,Rain,160,2013-01-11 14:03:00
9:22 AM,46.4,44.6,93,29.96,2.5,SSW,9.2,-,0.06,Rain,Rain,200,2013-01-11 14:22:00
9:42 AM,46.4,46.4,100,29.95,10.0,South,13.8,17.3,0.06,,Light Drizzle,180,2013-01-11 14:42:00
10:03 AM,46.4,46.4,100,29.94,10.0,South,12.7,17.3,N/A,,Overcast,170,2013-01-11 15:03:00
10:22 AM,48.2,46.4,93,29.92,10.0,South,17.3,-,N/A,Rain,Light Rain,170,2013-01-11 15:22:00
10:42 AM,48.2,46.4,93,29.91,10.0,SSE,19.6,24.2,0.02,Rain,Rain,160,2013-01-11 15:42:00
11:02 AM,50.0,46.4,87,29.91,10.0,South,13.8,-,N/A,,Overcast,170,2013-01-11 16:02:00
11:22 AM,50.0,46.4,87,29.90,10.0,South,17.3,24.2,N/A,,Overcast,180,2013-01-11 16:22:00
11:42 AM,51.8,50.0,94,29.90,10.0,South,15.0,26.5,N/A,,Scattered Clouds,180,2013-01-11 16:42:00
12:02 PM,53.6,50.0,88,29.90,10.0,SSW,16.1,21.9,N/A,,Scattered Clouds,210,2013-01-11 17:02:00
12:22 PM,53.6,50.0,88,29.90,10.0,SSW,16.1,24.2,N/A,,Mostly Cloudy,210,2013-01-11 17:22:00
12:42 PM,53.6,50.0,88,29.89,10.0,SSW,17.3,24.2,N/A,,Mostly Cloudy,210,2013-01-11 17:42:00
1:22 PM,55.4,50.0,82,29.90,10.0,SSW,12.7,18.4,N/A,,Mostly Cloudy,210,2013-01-11 18:22:00
1:42 PM,55.4,50.0,82,29.90,10.0,SW,11.5,16.1,N/A,,Mostly Cloudy,220,2013-01-11 18:42:00
2:02 PM,55.4,50.0,82,29.90,10.0,SW,13.8,19.6,N/A,,Overcast,230,2013-01-11 19:02:00
2:22 PM,55.4,51.8,88,29.90,10.0,SW,11.5,17.3,N/A,,Overcast,220,2013-01-11 19:22:00
2:42 PM,57.2,50.0,77,29.90,10.0,SW,10.4,17.3,N/A,,Overcast,220,2013-01-11 19:42:00
3:02 PM,57.2,50.0,77,29.91,10.0,SW,13.8,17.3,N/A,,Overcast,230,2013-01-11 20:02:00
3:22 PM,57.2,50.0,77,29.90,10.0,SW,10.4,-,N/A,,Mostly Cloudy,220,2013-01-11 20:22:00
3:43 PM,55.4,48.2,77,29.92,10.0,SW,11.5,-,N/A,,Clear,230,2013-01-11 20:43:00
4:02 PM,55.4,48.2,77,29.92,10.0,SW,10.4,-,N/A,,Mostly Cloudy,230,2013-01-11 21:02:00
4:22 PM,55.4,46.4,72,29.93,10.0,SW,11.5,-,N/A,,Mostly Cloudy,230,2013-01-11 21:22:00
4:43 PM,55.4,46.4,72,29.93,10.0,SW,8.1,-,N/A,,Mostly Cloudy,220,2013-01-11 21:43:00
5:02 PM,53.6,46.4,77,29.94,10.0,SW,9.2,-,N/A,,Mostly Cloudy,220,2013-01-11 22:02:00
5:22 PM,53.6,46.4,77,29.94,10.0,SSW,6.9,-,N/A,,Scattered Clouds,210,2013-01-11 22:22:00
5:43 PM,51.8,46.4,82,29.94,10.0,SSW,4.6,-,N/A,,Clear,200,2013-01-11 22:43:00
6:02 PM,51.8,44.6,76,29.95,10.0,SSW,5.8,-,N/A,,Scattered Clouds,210,2013-01-11 23:02:00
6:22 PM,51.8,44.6,76,29.95,10.0,SW,3.5,-,N/A,,Scattered Clouds,220,2013-01-11 23:22:00
6:42 PM,50.0,44.6,82,29.95,10.0,South,4.6,-,N/A,,Clear,180,2013-01-11 23:42:00
7:02 PM,50.0,44.6,82,29.95,10.0,South,5.8,-,N/A,,Clear,180,2013-01-12 00:02:00
7:22 PM,48.2,44.6,87,29.96,10.0,South,4.6,-,N/A,,Clear,190,2013-01-12 00:22:00
7:42 PM,48.2,44.6,87,29.95,10.0,SSE,5.8,-,N/A,,Clear,160,2013-01-12 00:42:00
8:22 PM,48.2,44.6,87,29.96,10.0,South,4.6,-,N/A,,Clear,180,2013-01-12 01:22:00
8:42 PM,46.4,44.6,93,29.96,10.0,South,5.8,-,N/A,,Clear,170,2013-01-12 01:42:00
9:02 PM,46.4,44.6,93,29.96,10.0,South,5.8,-,N/A,,Clear,170,2013-01-12 02:02:00
9:23 PM,48.2,44.6,87,29.96,10.0,South,5.8,-,N/A,,Clear,180,2013-01-12 02:23:00
9:42 PM,48.2,44.6,87,29.96,10.0,South,5.8,-,N/A,,Clear,170,2013-01-12 02:42:00
10:02 PM,46.4,44.6,93,29.96,10.0,South,5.8,-,N/A,,Clear,170,2013-01-12 03:02:00
10:23 PM,46.4,44.6,93,29.95,7.0,South,5.8,-,N/A,,Clear,170,2013-01-12 03:23:00
10:42 PM,46.4,44.6,93,29.95,10.0,SSE,8.1,-,N/A,,Clear,160,2013-01-12 03:42:00
11:02 PM,46.4,44.6,93,29.95,10.0,South,6.9,-,N/A,,Clear,170,2013-01-12 04:02:00
11:23 PM,48.2,44.6,87,29.95,10.0,South,8.1,-,N/A,,Clear,180,2013-01-12 04:23:00
11:42 PM,48.2,44.6,87,29.95,10.0,South,9.2,-,N/A,,Clear,190,2013-01-12 04:42:00